Flag for U.S.A. Weather past 2 weeks in Jackson, Wyoming, U.S.A.

Now
30 °F

Overcast.


Feels Like: 20 °F
Forecast: 23 / 33 °F
Wind: 14 mph from South

Location: Jackson Hole

Current Time: Dec 19, 2014 at 7:25:45 PM

Latest Report: Dec 19, 2014 at 6:52 PM


Visibility: 10 mi

Pressure: 30.03 "Hg

Humidity: 93%

Dew point: 28 °F

Location of JacksonLocation

Historic Weather in Jackson — Graph

°F

Jackson temperature yesterday

Maximum temperature yesterday: 27 °F (at 12:51 PM)
Minimum temperature yesterday: 10 °F (at 1:15 AM)
Average temperature yesterday: 19 °F

Past Weeks' High & Low Weather Summary

 TemperatureHumidityPressure
High43 °F (Dec 7, 1:52 PM)100% (Dec 5, 5:15 AM)30.40 "Hg (Dec 5, 5:15 AM)
Low5 °F (Dec 15, 10:35 PM)53% (Dec 7, 1:52 PM)29.84 "Hg (Dec 13, 4:15 AM)
Average25 °F92%30.12 "Hg
* Reported Dec 4 5:52 PM — Dec 19 5:53 PM, Jackson, Weather by CustomWeather, © 2014

Note: Actual official high and low records may vary slightly from our data, if they occured in-between our weather recording intervals... More about our weather records

Advertising

Jackson weather history for previous 24 hours

 ConditionsComfort  
Time TempWeatherWind HumidityBarometerVisibility
5:53 PM
Dec 19
30 °FMostly cloudy.5 mph93%30.04 "Hg10 mi
4:55 PM30 °FMostly cloudy.7 mph93%30.04 "Hg8 mi
3:51 PM30 °FLight snow. Overcast.6 mph93%30.05 "Hg5 mi
2:55 PM34 °FMore clouds than sun.6 mph75%30.05 "Hg10 mi
2:25 PM34 °FLight snow. Broken clouds.7 mph75%30.05 "Hg5 mi
1:51 PM32 °FScattered showers. Overcast.7 mph80%30.06 "Hg10 mi
12:51 PM30 °FRain showers. Overcast.8 mph93%30.07 "Hg10 mi
11:51 AM30 °FScattered showers. Cloudy.7 mph93%30.09 "Hg8 mi
10:51 AM30 °FScattered showers. Partly sunny.7 mph86%30.11 "Hg8 mi
9:51 AM28 °FBroken clouds.No wind86%30.11 "Hg10 mi
8:51 AM27 °FPartly sunny.No wind93%30.10 "Hg10 mi
7:53 AM27 °FScattered clouds.3 mph93%30.09 "Hg10 mi
6:47 AM28 °FPartly cloudy.6 mph93%30.09 "Hg10 mi
6:35 AM28 °FOvercast.5 mph93%30.09 "Hg10 mi
6:15 AM28 °FOvercast.10 mph93%30.09 "Hg10 mi
5:55 AM28 °FMostly cloudy.5 mph93%30.09 "Hg10 mi
5:35 AM28 °FOvercast.12 mph93%30.09 "Hg10 mi
5:15 AM28 °FMostly cloudy.13 mph93%30.08 "Hg10 mi
4:55 AM28 °FMostly cloudy.13 mph93%30.09 "Hg10 mi
4:35 AM28 °FMostly cloudy.12 mph93%30.08 "Hg10 mi
4:15 AM28 °FOvercast.13 mph93%30.08 "Hg6 mi
3:55 AM28 °FMostly cloudy.12 mph93%30.08 "Hg7 mi
3:35 AM28 °FMostly cloudy.12 mph93%30.08 "Hg10 mi
3:15 AM28 °FMostly cloudy.12 mph93%30.09 "Hg8 mi
2:55 AM28 °FMostly cloudy.8 mph93%30.09 "Hg10 mi
2:35 AM27 °FPartly cloudy.7 mph100%30.09 "Hg10 mi
2:15 AM28 °FPartly cloudy.6 mph93%30.08 "Hg10 mi
1:55 AM27 °FPartly cloudy.5 mph100%30.09 "Hg5 mi
1:35 AM27 °FOvercast.5 mph100%30.08 "Hg10 mi
1:15 AM27 °FOvercast.5 mph93%30.09 "Hg10 mi
12:55 AM27 °FOvercast.7 mph93%30.08 "Hg10 mi
12:35 AM25 °FMostly cloudy.6 mph93%30.08 "Hg10 mi
12:15 AM27 °FOvercast.6 mph93%30.09 "Hg10 mi
11:55 PM
Dec 18
27 °FOvercast.No wind93%30.10 "Hg9 mi
11:35 PM25 °FOvercast.3 mph100%30.10 "Hg10 mi
11:15 PM25 °FOvercast.No wind100%30.11 "Hg9 mi
10:55 PM25 °FOvercast.No wind100%30.11 "Hg10 mi
10:35 PM25 °FOvercast.No wind100%30.11 "Hg10 mi
10:15 PM23 °FOvercast.3 mph100%30.11 "Hg10 mi
9:55 PM25 °FMostly cloudy.No wind100%30.11 "Hg10 mi
9:35 PM25 °FMostly cloudy.No wind100%30.11 "Hg10 mi
9:15 PM23 °FMostly cloudy.3 mph100%30.10 "Hg10 mi
7:51 PM25 °FOvercast.7 mph100%30.10 "Hg10 mi
Weather by CustomWeather, © 2014

See weather overviewHow to use our weather pages